Location: Boursonne
(49.2024°N, 3.0468°E)
Time: 00:19:56
(UTC+00:00)

Cosmos 2184 Rocket - Pass Details

Date: 03 March 2021
Orbit: 960 x 1001 km, 82.9° (Epoch: 14 April)

Event Time Altitude Azimuth Distance (km) Brightness Sun altitude
Rises 17:54:38 0° 174° (S) 3,630 7.0 -4.1°
Reaches altitude 10° 17:57:08 10° 171° (S) 2,690 6.3 -4.5°
Maximum altitude 18:03:10 60° 93° (E) 1,101 4.0 -5.5°
Drops below altitude 10° 18:09:16 10° 15° (NNE) 2,726 6.2 -6.5°
Sets 18:11:49 0° 12° (NNE) 3,683 6.9 -6.9°
